星链-3905 (STARLINK-3905 )

导读

STARLINK-3905是美国太空探索技术公司(SpaceX)研制发射的Starlink V1.0低轨通信卫星,属于星链全球卫星互联网项目,于2022年5月6日发射。该卫星运行在近地点约355公里、远地点约357公里轨道,轨道倾角43.001°,参与为全球提供高速低延迟互联网服务,为缩小数字鸿沟、推动互联网普及提供支持。

基本信息
目录编号:
52495
目录名称:
STARLINK-3905
国际标识:
2022-049AW
轨道中心:
EARTH
卫星名称:
星链-3905
卫星全名:
星链-3905 (STARLINK-3905 )
卫星状态:
已陨落 最后检测时间 2025-03-28
发射日期:
2022-05-06 UTC
国别 :
美国 (US)
星等 :
--
该卫星已列入 空间交会检测服务 Space Conjunction Data Service (SCDS) ,当前飞行风险评估等级: 无高风险
轨道信息
数据来源 国际轨道数据
星历时间: 2025-03-27T21:42:26+0800
轨道信息已过期533天
半长轴: 6585.72km
偏心率: 0.0005617
轨道倾角: 53.206°
近地点辐角 350.303°
升交点赤经 148.303°
平近点角 119.986°
近地点: 203.885km
远地点: 211.285km
周期: 88.647分钟
每日圈数: 16.244184
详细信息
固有亮度:
5
最大亮度:
2.5
卫星平台:
Starlink v1.5
覆盖范围:
全球
运营商:
太空探索技术公司
运营商所在国:
美国
制造商(研发单位):
太空探索技术公司
制造商所在国:
美国
使用方式:
暂无
卫星简介
星链(Starlink)计划是由太空探索技术公司(SpaceX)提出的一个巨型低轨卫星互联网星座项目,计划在2019年至2024年间在太空搭建由约1.2万颗卫星组成的“星链”网络,其中1584颗将部署在地球上空550千米处的近地轨道,并从2020年开始工作。该卫星仍在工作。
与全量物体交会距离演化趋势
与全量物体交会风险概率演化趋势